�������l�o���
Date,Time,MP-1(��Sv/h),MP-2(��Sv/h),MP-3(��Sv/h),MP-4(��Sv/h),MP-5(��Sv/h),MP-6(��Sv/h),MP-7(��Sv/h),MP-8(��Sv/h),����,����(m/s),���J
2024/05/25,00:00,0.509,0.780,0.488,0.964,0.702,0.316,0.550,0.519,�k��,9.6,��
2024/05/25,00:10,0.507,0.781,0.489,0.963,0.702,0.317,0.550,0.518,�k��,10.2,��
2024/05/25,00:20,0.507,0.779,0.488,0.961,0.703,0.316,0.550,0.519,�k��,11.0,��
2024/05/25,00:30,0.509,0.780,0.487,0.964,0.701,0.315,0.551,0.520,�k��,12.4,��
2024/05/25,00:40,0.510,0.782,0.489,0.962,0.703,0.317,0.550,0.518,�k��,10.5,��
2024/05/25,00:50,0.510,0.780,0.489,0.962,0.703,0.317,0.551,0.520,�k��,11.3,��
2024/05/25,01:00,0.508,0.782,0.490,0.962,0.702,0.316,0.550,0.519,�k��,10.5,��
2024/05/25,01:10,0.508,0.781,0.490,0.966,0.702,0.316,0.550,0.520,�k��,12.4,��
2024/05/25,01:20,0.508,0.779,0.490,0.964,0.703,0.315,0.551,0.520,�k��,10.8,��
2024/05/25,01:30,0.508,0.780,0.490,0.963,0.704,0.315,0.549,0.519,�k��,11.1,��
2024/05/25,01:40,0.510,0.781,0.489,0.965,0.702,0.316,0.551,0.519,�k��,10.6,��
2024/05/25,01:50,0.510,0.780,0.490,0.965,0.702,0.316,0.551,0.519,�k��,9.5,��
2024/05/25,02:00,0.508,0.779,0.489,0.965,0.703,0.316,0.549,0.519,�k��,9.8,��
2024/05/25,02:10,0.509,0.780,0.490,0.963,0.702,0.315,0.550,0.518,�k��,10.5,��
2024/05/25,02:20,0.511,0.779,0.491,0.963,0.703,0.316,0.549,0.519,�k��,9.0,��
2024/05/25,02:30,0.509,0.779,0.489,0.962,0.703,0.316,0.551,0.520,�k��,11.1,��
2024/05/25,02:40,0.509,0.782,0.490,0.963,0.702,0.316,0.552,0.520,�k��,8.3,��
2024/05/25,02:50,0.509,0.779,0.490,0.963,0.703,0.318,0.552,0.520,�k��,8.7,��
2024/05/25,03:00,0.509,0.780,0.491,0.965,0.703,0.316,0.551,0.519,�k��,7.9,��
2024/05/25,03:10,0.508,0.779,0.491,0.963,0.703,0.316,0.550,0.520,�k��,9.0,��
2024/05/25,03:20,0.509,0.780,0.489,0.964,0.703,0.318,0.550,0.519,�k��,7.8,��
2024/05/25,03:30,0.510,0.780,0.491,0.965,0.704,0.318,0.550,0.519,�k��,6.3,��
2024/05/25,03:40,0.509,0.780,0.490,0.964,0.704,0.317,0.549,0.520,�k��,4.8,��
2024/05/25,03:50,0.507,0.780,0.490,0.964,0.705,0.317,0.550,0.520,�k��,3.9,��
2024/05/25,04:00,0.509,0.782,0.491,0.964,0.703,0.318,0.551,0.519,�k��,4.7,��
2024/05/25,04:10,0.510,0.780,0.491,0.962,0.704,0.318,0.550,0.518,�k��,1.5,��
2024/05/25,04:20,0.508,0.779,0.488,0.963,0.705,0.317,0.551,0.519,�k��,5.1,��
2024/05/25,04:30,0.508,0.781,0.490,0.962,0.706,0.318,0.551,0.518,�k��,5.1,��
2024/05/25,04:40,0.509,0.778,0.490,0.964,0.703,0.316,0.550,0.518,�k��,7.1,��
2024/05/25,04:50,0.508,0.779,0.489,0.965,0.704,0.317,0.551,0.517,�k��,3.9,��
2024/05/25,05:00,0.508,0.780,0.490,0.963,0.704,0.318,0.551,0.517,�k��,4.8,��
2024/05/25,05:10,0.507,0.781,0.491,0.964,0.705,0.318,0.550,0.518,���k��,5.2,��
2024/05/25,05:20,0.509,0.779,0.489,0.963,0.703,0.315,0.551,0.517,�k��,5.6,��
2024/05/25,05:30,0.508,0.780,0.490,0.963,0.705,0.316,0.550,0.518,�k��,5.3,��
2024/05/25,05:40,0.509,0.780,0.488,0.963,0.703,0.317,0.551,0.518,�k��,6.7,��
2024/05/25,05:50,0.508,0.781,0.489,0.963,0.705,0.318,0.549,0.517,�k��,5.2,��
2024/05/25,06:00,0.509,0.781,0.489,0.965,0.706,0.317,0.550,0.516,�k��,8.0,��
2024/05/25,06:10,0.509,0.781,0.490,0.964,0.703,0.317,0.549,0.518,���k��,7.2,��
2024/05/25,06:20,0.509,0.779,0.490,0.963,0.706,0.317,0.552,0.518,�k��,6.6,��
2024/05/25,06:30,0.509,0.778,0.489,0.962,0.705,0.316,0.551,0.518,�k��,8.6,��
2024/05/25,06:40,0.508,0.779,0.489,0.964,0.704,0.315,0.553,0.519,�k��,9.1,��
2024/05/25,06:50,0.509,0.779,0.488,0.966,0.704,0.316,0.551,0.518,���k��,9.7,��
2024/05/25,07:00,0.506,0.778,0.487,0.966,0.703,0.315,0.551,0.518,�k��,7.9,��
2024/05/25,07:10,0.506,0.777,0.488,0.965,0.703,0.316,0.551,0.518,�k��,6.8,��
2024/05/25,07:20,0.507,0.777,0.490,0.965,0.702,0.315,0.550,0.517,�k��,4.5,��
2024/05/25,07:30,0.506,0.778,0.488,0.966,0.704,0.315,0.550,0.518,�k��,4.2,��
2024/05/25,07:40,0.506,0.780,0.487,0.965,0.702,0.315,0.550,0.518,���k��,4.3,��
2024/05/25,07:50,0.508,0.779,0.490,0.966,0.702,0.315,0.550,0.516,�k��,4.0,��
2024/05/25,08:00,0.507,0.777,0.490,0.965,0.703,0.315,0.551,0.516,�k��,6.3,��
2024/05/25,08:10,0.507,0.779,0.489,0.965,0.704,0.314,0.551,0.515,���k��,6.3,��
2024/05/25,08:20,0.507,0.778,0.489,0.966,0.702,0.316,0.550,0.515,���k��,6.7,��
2024/05/25,08:30,0.508,0.779,0.488,0.965,0.704,0.315,0.550,0.517,�k��,9.2,��
2024/05/25,08:40,0.508,0.777,0.489,0.966,0.705,0.316,0.551,0.516,�k��,8.3,��
2024/05/25,08:50,0.507,0.778,0.490,0.968,0.705,0.315,0.552,0.516,���k��,6.0,��
2024/05/25,09:00,0.508,0.778,0.488,0.965,0.704,0.315,0.550,0.516,�k��,3.6,��
2024/05/25,09:10,0.507,0.778,0.490,0.965,0.704,0.316,0.552,0.517,�k��,4.0,��
2024/05/25,09:20,0.506,0.778,0.488,0.964,0.704,0.316,0.551,0.516,�k��,4.2,��
2024/05/25,09:30,0.509,0.778,0.489,0.966,0.703,0.315,0.552,0.515,�k��,4.4,��
2024/05/25,09:40,0.507,0.779,0.487,0.967,0.702,0.315,0.552,0.516,�k�k��,4.0,��
2024/05/25,09:50,0.510,0.778,0.489,0.963,0.702,0.316,0.551,0.517,�k��,2.6,��
2024/05/25,10:00,0.507,0.779,0.489,0.966,0.704,0.317,0.552,0.517,���k��,5.9,��
2024/05/25,10:10,0.508,0.779,0.487,0.967,0.704,0.315,0.551,0.516,���k��,4.3,��
2024/05/25,10:20,0.509,0.780,0.489,0.967,0.703,0.317,0.553,0.516,�k�k��,5.5,��
2024/05/25,10:30,0.510,0.780,0.488,0.968,0.705,0.317,0.551,0.518,�k��,5.9,��
2024/05/25,10:40,0.509,0.778,0.489,0.967,0.704,0.317,0.552,0.516,�k�k��,5.8,��
2024/05/25,10:50,0.509,0.781,0.488,0.968,0.705,0.316,0.551,0.517,�k��,6.7,��
2024/05/25,11:00,0.510,0.778,0.489,0.965,0.705,0.317,0.553,0.518,�k��,5.1,��
2024/05/25,11:10,0.509,0.781,0.490,0.966,0.706,0.317,0.552,0.516,���k��,4.3,��
2024/05/25,11:20,0.509,0.780,0.489,0.963,0.705,0.317,0.553,0.515,�k��,4.4,��
2024/05/25,11:30,0.509,0.779,0.489,0.966,0.706,0.318,0.553,0.516,�k�k��,4.7,��
2024/05/25,11:40,0.510,0.780,0.490,0.965,0.706,0.317,0.553,0.516,�k��,5.0,��
2024/05/25,11:50,0.509,0.782,0.490,0.966,0.706,0.318,0.553,0.517,�k��,3.8,��
2024/05/25,12:00,0.508,0.781,0.491,0.965,0.708,0.316,0.551,0.518,�k��,6.8,��
2024/05/25,12:10,0.509,0.781,0.489,0.966,0.706,0.317,0.554,0.517,�k�k��,6.7,��
2024/05/25,12:20,0.509,0.782,0.490,0.964,0.705,0.317,0.552,0.517,�k��,6.0,��
2024/05/25,12:30,0.510,0.781,0.490,0.966,0.707,0.316,0.553,0.517,�k�k��,6.6,��
2024/05/25,12:40,0.510,0.781,0.489,0.967,0.708,0.319,0.553,0.517,�k�k��,4.7,��
2024/05/25,12:50,0.511,0.783,0.491,0.965,0.708,0.319,0.553,0.517,�k,5.2,��
2024/05/25,13:00,0.511,0.780,0.489,0.967,0.710,0.317,0.553,0.517,�k�k��,8.0,��
2024/05/25,13:10,0.511,0.782,0.490,0.966,0.707,0.315,0.553,0.517,�k�k��,7.2,��
2024/05/25,13:20,0.511,0.782,0.491,0.967,0.707,0.317,0.553,0.518,�k�k��,7.8,��
2024/05/25,13:30,0.511,0.782,0.489,0.967,0.707,0.318,0.553,0.516,�k�k��,7.5,��
2024/05/25,13:40,0.512,0.782,0.489,0.968,0.708,0.318,0.553,0.517,�k��,7.3,��
2024/05/25,13:50,0.510,0.782,0.490,0.969,0.710,0.317,0.553,0.516,�k�k��,6.0,��
2024/05/25,14:00,0.511,0.783,0.490,0.967,0.709,0.318,0.553,0.517,�k�k��,5.9,��
2024/05/25,14:10,0.509,0.781,0.490,0.970,0.707,0.317,0.551,0.517,�k��,5.9,��
2024/05/25,14:20,0.512,0.782,0.493,0.968,0.707,0.316,0.553,0.517,�k��,8.8,��
2024/05/25,14:30,0.510,0.781,0.492,0.968,0.708,0.317,0.553,0.517,�k�k��,10.3,��
2024/05/25,14:40,0.511,0.782,0.490,0.968,0.707,0.318,0.552,0.518,�k��,7.7,��
2024/05/25,14:50,0.510,0.781,0.490,0.967,0.708,0.318,0.553,0.517,�k��,6.0,��
2024/05/25,15:00,0.512,0.783,0.490,0.968,0.709,0.317,0.552,0.517,�k��,9.2,��
2024/05/25,15:10,0.510,0.781,0.491,0.970,0.707,0.318,0.553,0.517,�k�k��,8.9,��
2024/05/25,15:20,0.512,0.782,0.491,0.970,0.708,0.318,0.553,0.517,�k�k��,6.7,��
2024/05/25,15:30,0.510,0.782,0.490,0.969,0.708,0.318,0.553,0.518,�k�k��,6.3,��
2024/05/25,15:40,0.510,0.782,0.491,0.968,0.708,0.318,0.552,0.517,�k�k��,5.8,��
2024/05/25,15:50,0.509,0.783,0.491,0.970,0.707,0.317,0.553,0.517,�k�k��,6.9,��
2024/05/25,16:00,0.509,0.784,0.491,0.969,0.708,0.318,0.552,0.516,�k�k��,7.6,��
2024/05/25,16:10,0.511,0.784,0.490,0.966,0.708,0.317,0.554,0.517,�k�k��,7.9,��
2024/05/25,16:20,0.512,0.783,0.490,0.971,0.708,0.316,0.552,0.517,�k�k��,7.6,��
2024/05/25,16:30,0.510,0.784,0.490,0.969,0.710,0.316,0.553,0.517,�k�k��,9.0,��
2024/05/25,16:40,0.510,0.781,0.490,0.967,0.709,0.318,0.551,0.517,�k�k��,7.0,��
2024/05/25,16:50,0.511,0.783,0.489,0.969,0.709,0.317,0.552,0.516,�k�k��,8.7,��
2024/05/25,17:00,0.510,0.782,0.488,0.969,0.710,0.316,0.551,0.516,�k�k��,8.3,��
2024/05/25,17:10,0.509,0.782,0.488,0.969,0.709,0.316,0.551,0.516,�k�k��,9.3,��
2024/05/25,17:20,0.510,0.782,0.490,0.969,0.709,0.316,0.552,0.518,�k�k��,8.7,��
2024/05/25,17:30,0.509,0.782,0.489,0.967,0.708,0.316,0.553,0.517,�k�k��,8.3,��
2024/05/25,17:40,0.511,0.781,0.488,0.968,0.707,0.315,0.551,0.517,�k�k��,8.6,��
2024/05/25,17:50,0.510,0.783,0.491,0.969,0.708,0.316,0.552,0.517,�k�k��,8.3,��
2024/05/25,18:00,0.507,0.784,0.488,0.971,0.709,0.315,0.553,0.518,�k�k��,8.5,��
2024/05/25,18:10,0.510,0.784,0.489,0.969,0.708,0.316,0.551,0.519,�k�k��,8.2,��
2024/05/25,18:20,0.511,0.782,0.490,0.971,0.709,0.317,0.551,0.518,�k�k��,7.5,��
2024/05/25,18:30,0.509,0.784,0.490,0.972,0.711,0.317,0.552,0.518,�k�k��,7.3,��
2024/05/25,18:40,0.511,0.785,0.490,0.971,0.708,0.316,0.552,0.517,�k�k��,7.0,��
2024/05/25,18:50,0.514,0.785,0.488,0.970,0.709,0.316,0.550,0.518,�k�k��,6.5,��
2024/05/25,19:00,0.512,0.785,0.488,0.973,0.710,0.315,0.551,0.519,�k,5.2,��
2024/05/25,19:10,0.513,0.786,0.489,0.970,0.710,0.317,0.551,0.518,�k,4.1,��
2024/05/25,19:20,0.511,0.784,0.490,0.972,0.712,0.317,0.551,0.518,�k�k��,6.2,��
2024/05/25,19:30,0.510,0.787,0.490,0.972,0.710,0.317,0.552,0.517,�k,4.6,��
2024/05/25,19:40,0.513,0.786,0.492,0.970,0.711,0.317,0.551,0.515,�k,3.5,��
2024/05/25,19:50,0.512,0.785,0.489,0.972,0.711,0.318,0.552,0.516,�k,3.9,��
2024/05/25,20:00,0.511,0.786,0.492,0.972,0.709,0.318,0.553,0.517,�k�k��,2.6,��
2024/05/25,20:10,0.511,0.783,0.491,0.973,0.709,0.317,0.552,0.517,�k�k��,2.5,��
2024/05/25,20:20,0.512,0.786,0.492,0.971,0.710,0.317,0.552,0.518,�k,3.0,��
2024/05/25,20:30,0.510,0.786,0.490,0.972,0.711,0.318,0.553,0.517,�k�k��,3.4,��
2024/05/25,20:40,0.511,0.785,0.491,0.971,0.710,0.317,0.552,0.518,�k�k��,3.9,��
2024/05/25,20:50,0.512,0.783,0.491,0.971,0.711,0.317,0.553,0.516,�k�k��,2.6,��
2024/05/25,21:00,0.511,0.783,0.492,0.972,0.710,0.318,0.551,0.518,�k�k��,3.0,��
2024/05/25,21:10,0.510,0.786,0.489,0.972,0.709,0.316,0.552,0.518,�k�k��,2.8,��
2024/05/25,21:20,0.511,0.784,0.490,0.973,0.711,0.317,0.551,0.518,�k�k��,2.6,��
2024/05/25,21:30,0.511,0.784,0.490,0.970,0.710,0.316,0.553,0.517,�k�k��,2.0,��
2024/05/25,21:40,0.510,0.783,0.490,0.972,0.709,0.317,0.551,0.517,�k,2.5,��
2024/05/25,21:50,0.513,0.785,0.491,0.973,0.708,0.316,0.553,0.518,�k,2.0,��
2024/05/25,22:00,0.512,0.787,0.490,0.972,0.708,0.317,0.552,0.515,�k��,1.5,��
2024/05/25,22:10,0.512,0.784,0.489,0.972,0.711,0.316,0.553,0.517,���k��,2.2,��
2024/05/25,22:20,0.513,0.783,0.491,0.971,0.709,0.317,0.554,0.517,���k��,2.6,��
2024/05/25,22:30,0.510,0.783,0.490,0.973,0.709,0.318,0.555,0.519,���k��,2.2,��
2024/05/25,22:40,0.513,0.785,0.489,0.972,0.711,0.318,0.552,0.517,���쐼,1.7,��
2024/05/25,22:50,0.510,0.785,0.490,0.971,0.710,0.317,0.552,0.517,�쐼,0.9,��
2024/05/25,23:00,0.511,0.784,0.489,0.971,0.711,0.316,0.552,0.517,���쓌,0.9,��
2024/05/25,23:10,0.511,0.785,0.490,0.973,0.711,0.316,0.554,0.516,���쓌,0.9,��
2024/05/25,23:20,0.511,0.784,0.490,0.971,0.707,0.317,0.553,0.517,���쓌,0.6,��
2024/05/25,23:30,0.509,0.784,0.489,0.973,0.710,0.318,0.553,0.516,-,CALM,��
2024/05/25,23:40,0.512,0.783,0.490,0.972,0.709,0.317,0.554,0.517,��쐼,1.1,��
2024/05/25,23:50,0.512,0.785,0.490,0.971,0.711,0.317,0.553,0.516,��쐼,1.5,��
